Weather History for Imperial, NE

Change the Weather History Date:

Friday, September 23, 2011

  Actual Average Record
Temperature  
Mean Temperature 62 °F 61 °F  
Max Temperature 86 °F 76 °F 97 °F (1921)
Min Temperature 37 °F 46 °F 31 °F (1989)
Degree Days  
Heating Degree Days 3 5  
Month to date heating degree days 99 60  
Cooling Degree Days 0 2  
Month to date cooling degree days 38 83  
Year to date cooling degree days 1075 949  
Growing Degree Days 10 (Base 50)    
Moisture  
Dew Point 41 °F    
Average Humidity 58    
Maximum Humidity 100    
Minimum Humidity 15    
Precipitation  
Precipitation 0.00 in 0.04 in 0.40 in (1935)
Sea Level Pressure  
Sea Level Pressure 30.08 in    
Wind  
Wind Speed 2 mph (WNW)    
Max Wind Speed 14 mph    
Max Gust Speed 17 mph    
Visibility 10 miles    
Events      
T = Trace of Precipitation, MM = Missing Value Source: NWS Daily Summary

Daily Weather History Graph

Daily Weather History Graph

Search for Another Location

Airport:

Trip Planner

Search our weather history database for the weather conditions in past years. The results will help you decide how hot, cold, wet, or windy it might be!

Date:

Astronomy

Sep. 23, 2011 Rise Set
Actual Time 6:34 AM MDT 6:42 PM MDT
Civil Twilight 6:07 AM MDT 7:09 PM MDT
Nautical Twilight 5:35 AM MDT 7:41 PM MDT
Astronomical Twilight 5:03 AM MDT 8:13 PM MDT
Moon 2:02 AM MDT (9/23) 4:15 PM MDT (9/23)
Length of Visible Light 13h 01m
Length of Day
12h 07m
Waning Crescent, 19% of the Moon is Illuminated
Sep 23
Waning Crescent
Sep 27
New
Oct 3
First Quarter
Oct 11
Full
Oct 19
Last Quarter

Hourly Weather History & Observations

Time (MDT) Temp. Windchill Dew Point Humidity Pressure Visibility Wind Dir Wind Speed Gust Speed Precip Events Conditions
12:53 AM 48.2 °F - 41.0 °F 76% 30.15 in 10.0 mi ESE 4.6 mph - N/A   Clear
1:53 AM 46.0 °F - 41.0 °F 83% 30.11 in 10.0 mi Calm Calm - N/A   Clear
2:53 AM 43.0 °F - 39.9 °F 89% 30.12 in 10.0 mi Calm Calm - N/A   Clear
3:53 AM 42.1 °F 39.2 °F 39.0 °F 89% 30.12 in 10.0 mi WNW 4.6 mph - N/A   Clear
4:53 AM 41.0 °F - 39.0 °F 93% 30.12 in 10.0 mi Calm Calm - N/A   Clear
6:53 AM 37.9 °F - 37.0 °F 97% 30.17 in 10.0 mi Calm Calm - N/A   Clear
7:53 AM 45.0 °F - 41.0 °F 86% 30.18 in 10.0 mi Calm Calm - N/A   Clear
8:53 AM 50.0 °F - 43.0 °F 77% 30.18 in 10.0 mi Calm Calm - N/A   Clear
9:53 AM 55.4 °F - 44.6 °F 67% 30.18 in 10.0 mi Calm Calm - N/A   Clear
10:53 AM 64.0 °F - 43.0 °F 46% 30.14 in 10.0 mi Calm Calm - N/A   Clear
11:53 AM 70.0 °F - 42.1 °F 36% 30.12 in 10.0 mi Calm Calm - N/A   Clear
12:53 PM 75.9 °F - 37.9 °F 25% 30.08 in 10.0 mi Calm Calm - N/A   Clear
1:53 PM 79.0 °F - 36.0 °F 21% 30.04 in 10.0 mi Calm Calm - N/A   Clear
2:53 PM 82.9 °F - 35.1 °F 18% 30.02 in 10.0 mi Calm Calm - N/A   Clear
3:53 PM 84.9 °F - 32.0 °F 15% 30.00 in 10.0 mi North 6.9 mph - N/A   Clear
4:53 PM 82.9 °F - 36.0 °F 19% 30.01 in 10.0 mi North 5.8 mph - N/A   Clear
5:53 PM 73.9 °F - 42.1 °F 32% 30.04 in 10.0 mi NNE 4.6 mph - N/A   Clear
6:53 PM 66.9 °F - 46.9 °F 49% 30.04 in 10.0 mi Calm Calm - N/A   Clear
7:53 PM 66.0 °F - 45.0 °F 47% 30.02 in 10.0 mi SSW 3.5 mph - N/A   Clear
8:53 PM 63.0 °F - 46.9 °F 56% 30.02 in 10.0 mi WSW 3.5 mph - N/A   Clear
9:53 PM 60.1 °F - 45.0 °F 57% 30.02 in 10.0 mi WSW 5.8 mph - N/A   Clear
10:53 PM 57.0 °F - 46.0 °F 67% 30.00 in 10.0 mi West 3.5 mph - N/A   Clear
11:53 PM 55.0 °F - 45.0 °F 69% 29.98 in 10.0 mi West 4.6 mph - N/A   Clear